FW8896 Weather Reports


time (UTC)temp
C
wind
direction
speed
KPH
gust
KPH
rain 1hr
cm
rain 24hr
cm
rain mn
cm
humidity
%
barometer
mb
20260506080728 16 31 1.6 8.0 0.00 0.00 0.00 86 1011.6
20260506080230 16 34 1.6 8.0 0.00 0.00 0.00 86 1011.5
20260506073229 16 0 0.0 3.2 0.00 0.00 0.00 85 1011.6
20260506072728 16 31 0.0 3.2 0.00 0.00 0.00 85 1011.6
20260506072229 16 320 0.0 3.2 0.00 0.00 0.00 84 1011.6
20260506071727 16 8 0.0 3.2 0.00 0.00 0.00 84 1011.6
20260506071228 16 31 0.0 3.2 0.00 0.00 0.00 84 1011.7
20260506070726 16 340 0.0 4.8 0.00 0.00 0.00 83 1011.6
20260506070300 15 16 0.0 4.8 0.00 0.00 0.00 84 1011.8
20260506070249 16 323 0.0 4.8 0.00 0.00 0.00 84 1011.8
20260506062254 16 51 0.0 1.6 0.00 0.00 0.00 81 1012.5
20260506062245 16 0 0.0 1.6 0.00 0.00 0.00 81 1012.4
20260506061225 16 0 0.0 1.6 0.00 0.00 0.00 80 1012.5
20260506060720 16 16 0.0 3.2 0.00 0.00 0.00 79 1012.4
20260506060221 16 3 1.6 3.2 0.00 0.00 0.00 79 1012.4
20260506051217 17 303 3.2 11.3 0.00 0.00 0.00 74 1012.5
20260506050717 17 23 3.2 9.7 0.00 0.00 0.00 73 1012.4
20260506050217 17 12 3.2 11.3 0.00 0.00 0.00 74 1012.4
20260506044716 17 25 3.2 9.7 0.00 0.00 0.00 72 1011.9
20260506044216 17 30 1.6 9.7 0.00 0.00 0.00 72 1012.0
20260506043716 17 0 3.2 11.3 0.00 0.00 0.00 71 1012.1
20260506043213 17 25 3.2 11.3 0.00 0.00 0.00 71 1012.3
20260506042713 17 302 1.6 8.0 0.00 0.00 0.00 70 1012.6
20260506042213 18 342 1.6 9.7 0.00 0.00 0.00 70 1012.4
20260506041711 18 8 3.2 11.3 0.00 0.00 0.00 69 1012.4
20260506041212 18 17 3.2 11.3 0.00 0.00 0.00 69 1012.5
20260506040712 18 32 3.2 9.7 0.00 0.00 0.00 70 1012.3
20260506040212 18 11 4.8 9.7 0.00 0.00 0.00 70 1012.2
20260506035712 18 35 4.8 9.7 0.00 0.00 0.00 70 1012.3
20260506035211 18 37 4.8 9.7 0.00 0.00 0.00 68 1012.3
20260506034712 18 36 4.8 9.7 0.00 0.00 0.00 69 1012.4
20260506034241 18 36 4.8 9.7 0.00 0.00 0.00 68 1012.2
20260506034231 18 33 4.8 9.7 0.00 0.00 0.00 67 1012.2
20260506033454 18 38 3.2 9.7 0.00 0.00 0.00 67 1012.2
20260506032709 18 42 3.2 8.0 0.00 0.00 0.00 69 1012.4
20260506032209 18 33 3.2 8.0 0.00 0.00 0.00 65 1012.5
20260506031953 18 15 3.2 6.4 0.00 0.00 0.00 64 1012.4
20260506031209 19 36 3.2 6.4 0.00 0.00 0.00 64 1012.3
20260506030708 19 22 3.2 6.4 0.00 0.00 0.00 64 1012.4
20260506030209 19 35 3.2 6.4 0.00 0.00 0.00 64 1012.3
20260506025710 19 23 3.2 4.8 0.00 0.00 0.00 65 1012.3
20260506025209 19 165 3.2 4.8 0.00 0.00 0.00 63 1012.5
20260506024709 19 41 3.2 6.4 0.00 0.00 0.00 63 1012.6
20260506024210 19 30 3.2 6.4 0.00 0.00 0.00 62 1012.6
20260506023707 19 35 3.2 6.4 0.00 0.00 0.00 62 1012.5
20260506023207 19 0 3.2 6.4 0.00 0.00 0.00 64 1012.5
20260506022950 18 36 4.8 6.4 0.00 0.00 0.00 61 1012.6
20260506022207 18 349 4.8 6.4 0.00 0.00 0.00 65 1012.4
20260506021707 18 35 4.8 6.4 0.00 0.00 0.00 63 1012.3
20260506021549 18 41 4.8 8.0 0.00 0.00 0.00 63 1012.3
20260506021249 18 38 4.8 8.0 0.00 0.00 0.00 63 1012.3
20260506015706 18 28 4.8 8.0 0.00 0.00 0.00 65 1012.0
20260506015208 19 51 3.2 6.4 0.00 0.00 0.00 68 1012.0
20260506014707 19 39 4.8 6.4 0.00 0.00 0.00 64 1012.2
20260506014207 19 30 4.8 6.4 0.00 0.00 0.00 63 1012.3
20260506013707 19 32 4.8 6.4 0.00 0.00 0.00 64 1012.2
20260506013206 19 24 4.8 8.0 0.00 0.00 0.00 65 1012.2
20260506012948 19 34 4.8 8.0 0.00 0.00 0.00 66 1012.2
20260506012205 19 35 4.8 6.4 0.00 0.00 0.00 65 1012.1
20260506011705 19 35 4.8 6.4 0.00 0.00 0.00 65 1012.1
20260506011206 19 31 4.8 8.0 0.00 0.00 0.00 63 1012.1
20260506010738 19 32 6.4 8.0 0.00 0.00 0.00 64 1011.9
20260506010727 19 37 6.4 8.0 0.00 0.00 0.00 63 1012.1
20260506005728 20 41 6.4 8.0 0.00 0.00 0.00 65 1011.9
20260506004948 20 33 3.2 6.4 0.00 0.00 0.00 61 1012.1
20260506004207 20 33 3.2 4.8 0.00 0.00 0.00 60 1012.1
20260506003704 21 26 1.6 4.8 0.00 0.00 0.00 59 1012.2
20260506003203 21 359 1.6 3.2 0.00 0.00 0.00 61 1012.3
20260506002702 21 36 1.6 3.2 0.00 0.00 0.00 59 1012.3
20260506002203 21 10 0.0 3.2 0.00 0.00 0.00 56 1012.4
20260506001702 22 352 0.0 3.2 0.00 0.00 0.00 55 1012.4
20260506001204 22 7 0.0 1.6 0.00 0.00 0.00 54 1012.4
20260506000704 22 354 0.0 1.6 0.00 0.00 0.00 54 1012.4
20260506000205 22 0 0.0 1.6 0.00 0.00 0.00 53 1012.3
20260505235702 22 0 0.0 1.6 0.00 0.00 0.00 53 1012.3
20260505235203 22 303 0.0 1.6 0.00 0.00 0.00 52 1012.3
20260505234702 23 0 0.0 1.6 0.00 0.00 0.00 52 1012.2
20260505234202 23 0 0.0 3.2 0.00 0.00 0.00 52 1012.2
20260505233702 23 0 0.0 3.2 0.00 0.00 0.00 51 1012.3
20260505233203 23 10 0.0 3.2 0.00 0.00 0.00 50 1012.5
20260505232703 23 327 0.0 3.2 0.00 0.00 0.00 51 1012.5
20260505232205 23 0 0.0 3.2 0.00 0.00 0.00 51 1012.4
20260505231702 23 0 0.0 3.2 0.00 0.00 0.00 51 1012.4
20260505231202 23 0 0.0 1.6 0.00 0.00 0.00 50 1012.5
20260505230702 23 0 0.0 4.8 0.00 0.00 0.00 49 1012.4
20260505230202 23 0 0.0 4.8 0.00 0.00 0.00 49 1012.3
20260505225944 23 332 0.0 4.8 0.00 0.00 0.00 50 1012.1
20260505225202 23 0 0.0 3.2 0.00 0.00 0.00 49 1012.1
20260505224703 24 288 0.0 3.2 0.00 0.00 0.00 50 1012.1
20260505224202 24 90 0.0 3.2 0.00 0.00 0.00 49 1011.9
20260505223703 24 0 0.0 3.2 0.00 0.00 0.00 48 1011.9
20260505223202 24 0 0.0 3.2 0.00 0.00 0.00 48 1012.0
20260505222701 24 0 0.0 4.8 0.00 0.00 0.00 47 1012.1
20260505222201 24 0 0.0 4.8 0.00 0.00 0.00 47 1012.1
20260505221700 24 0 0.0 3.2 0.00 0.00 0.00 48 1012.0
20260505221202 24 21 0.0 3.2 0.00 0.00 0.00 48 1012.1
20260505220700 25 0 0.0 3.2 0.00 0.00 0.00 49 1012.0
20260505220201 25 0 0.0 3.2 0.00 0.00 0.00 48 1012.1
20260505215701 24 0 0.0 3.2 0.00 0.00 0.00 47 1011.9
20260505215202 24 48 0.0 3.2 0.00 0.00 0.00 47 1011.8
20260505214944 25 0 1.6 6.4 0.00 0.00 0.00 46 1011.9
20260505214201 25 0 1.6 6.4 0.00 0.00 0.00 46 1011.9
20260505213701 26 81 1.6 3.2 0.00 0.00 0.00 46 1011.8
20260505213201 26 134 0.0 4.8 0.00 0.00 0.00 46 1012.0
20260505212703 26 300 1.6 8.0 0.00 0.00 0.00 46 1012.0
20260505212202 26 0 1.6 8.0 0.00 0.00 0.00 46 1012.1
20260505211701 26 38 1.6 3.2 0.00 0.00 0.00 46 1012.1
20260505211201 26 333 0.0 3.2 0.00 0.00 0.00 47 1012.2
20260505210944 26 0 0.0 3.2 0.00 0.00 0.00 46 1012.2
20260505210202 26 0 0.0 3.2 0.00 0.00 0.00 46 1012.2
20260505205701 26 25 1.6 4.8 0.00 0.00 0.00 46 1012.3
20260505205202 26 83 0.0 4.8 0.00 0.00 0.00 45 1012.2
20260505204701 26 0 0.0 6.4 0.00 0.00 0.00 44 1012.2
20260505204201 26 0 1.6 8.0 0.00 0.00 0.00 46 1012.4
20260505203701 26 217 1.6 8.0 0.00 0.00 0.00 45 1012.6
20260505203447 26 0 1.6 4.8 0.00 0.00 0.00 46 1012.6
20260505202945 26 342 0.0 4.8 0.00 0.00 0.00 46 1012.6
20260505202202 26 0 1.6 6.4 0.00 0.00 0.00 47 1012.6
20260505201701 26 18 1.6 8.0 0.00 0.00 0.00 48 1012.8
20260505201200 26 0 0.0 8.0 0.00 0.00 0.00 46 1012.8
20260505200700 25 0 1.6 6.4 0.00 0.00 0.00 47 1012.8
20260505200203 25 122 1.6 6.4 0.00 0.00 0.00 53 1012.9
20260505195700 25 61 0.0 6.4 0.00 0.00 0.00 48 1012.9
20260505195443 25 0 0.0 3.2 0.00 0.00 0.00 52 1012.9
20260505194944 24 0 1.6 6.4 0.00 0.00 0.00 50 1013.1
20260505194202 24 0 1.6 6.4 0.00 0.00 0.00 49 1013.2
20260505193700 24 51 1.6 4.8 0.00 0.00 0.00 49 1013.2
20260505193202 23 0 1.6 6.4 0.00 0.00 0.00 50 1013.3
20260505192702 23 0 1.6 6.4 0.00 0.00 0.00 51 1013.4
20260505192446 24 51 1.6 6.4 0.00 0.00 0.00 50 1013.5
20260505191700 24 201 1.6 4.8 0.00 0.00 0.00 51 1013.4
20260505191201 24 74 1.6 4.8 0.00 0.00 0.00 51 1013.3
20260505190945 24 68 1.6 6.4 0.00 0.00 0.00 51 1013.4
20260505190224 24 78 1.6 6.4 0.00 0.00 0.00 50 1013.4
20260505185203 24 53 1.6 6.4 0.00 0.00 0.00 50 1013.6
20260505184702 24 280 1.6 6.4 0.00 0.00 0.00 50 1013.8
20260505184202 23 0 1.6 6.4 0.00 0.00 0.00 50 1013.8
20260505183701 23 220 1.6 8.0 0.00 0.00 0.00 50 1013.9
20260505183443 24 66 1.6 8.0 0.00 0.00 0.00 51 1013.8
20260505182946 24 131 1.6 8.0 0.00 0.00 0.00 51 1013.9
20260505182443 24 84 0.0 3.2 0.00 0.00 0.00 50 1014.0
20260505181702 24 0 1.6 6.4 0.00 0.00 0.00 51 1014.0
20260505181444 24 0 1.6 6.4 0.00 0.00 0.00 53 1014.1
20260505180947 24 13 1.6 6.4 0.00 0.00 0.00 51 1014.1
20260505180204 24 0 1.6 6.4 0.00 0.00 0.00 49 1014.3
20260505175701 24 105 1.6 6.4 0.00 0.00 0.00 51 1014.4
20260505175203 23 0 1.6 8.0 0.00 0.00 0.00 51 1014.4
20260505174702 23 0 1.6 8.0 0.00 0.00 0.00 50 1014.5
20260505174201 23 172 1.6 6.4 0.00 0.00 0.00 53 1014.5
20260505173704 23 0 1.6 6.4 0.00 0.00 0.00 52 1014.7
20260505173201 24 312 1.6 4.8 0.00 0.00 0.00 54 1014.9
20260505172702 23 0 1.6 8.0 0.00 0.00 0.00 52 1014.8
20260505172201 23 349 1.6 8.0 0.00 0.00 0.00 53 1014.7
20260505171701 23 0 1.6 4.8 0.00 0.00 0.00 55 1014.8
20260505171201 23 267 1.6 8.0 0.00 0.00 0.00 58 1014.8
20260505170945 23 86 1.6 8.0 0.00 0.00 0.00 55 1014.8
20260505170201 23 0 1.6 6.4 0.00 0.00 0.00 53 1014.9
20260505165701 23 0 1.6 6.4 0.00 0.00 0.00 52 1014.9
20260505165201 23 0 1.6 9.7 0.00 0.00 0.00 53 1014.8
20260505164701 23 0 1.6 9.7 0.00 0.00 0.00 56 1014.9
20260505164201 23 67 1.6 6.4 0.00 0.00 0.00 55 1014.9
20260505163701 23 0 1.6 6.4 0.00 0.00 0.00 54 1014.9
20260505163201 23 0 1.6 6.4 0.00 0.00 0.00 54 1014.8
20260505162701 22 0 1.6 6.4 0.00 0.00 0.00 55 1014.8
20260505162201 22 263 1.6 6.4 0.00 0.00 0.00 55 1014.9
20260505161701 22 63 1.6 6.4 0.00 0.00 0.00 56 1014.9
20260505161202 22 99 1.6 6.4 0.00 0.00 0.00 56 1014.9
20260505160701 22 358 1.6 6.4 0.00 0.00 0.00 54 1014.9
20260505160202 22 101 1.6 6.4 0.00 0.00 0.00 53 1015.0
20260505153159 22 187 1.6 9.7 0.00 0.00 0.00 53 1015.0
20260505152659 22 80 1.6 9.7 0.00 0.00 0.00 53 1015.2
20260505152200 22 286 1.6 9.7 0.00 0.00 0.00 56 1015.2
20260505151656 22 148 1.6 6.4 0.00 0.00 0.00 56 1015.1
20260505151158 21 77 1.6 6.4 0.00 0.00 0.00 58 1015.1
20260505150658 21 62 1.6 6.4 0.00 0.00 0.00 58 1015.0
20260505150157 21 0 1.6 4.8 0.00 0.00 0.00 61 1015.0
20260505140652 17 22 1.6 9.7 0.00 0.00 0.00 79 1014.8
20260505140435 16 298 1.6 9.7 0.00 0.00 0.00 80 1014.8
20260505130150 10 10 1.6 3.2 0.00 0.00 0.00 99 1014.6
20260505124650 9 344 1.6 4.8 0.00 0.00 0.00 100 1014.5
20260505124148 9 25 1.6 3.2 0.00 0.00 0.00 100 1014.5
20260505123647 9 26 3.2 3.2 0.00 0.00 0.00 100 1014.4
20260505123144 8 43 1.6 3.2 0.00 0.00 0.00 100 1014.3
20260505122644 8 6 3.2 3.2 0.00 0.00 0.00 100 1014.3
20260505122428 8 349 3.2 3.2 0.00 0.00 0.00 100 1014.1
20260505121645 8 31 3.2 3.2 0.00 0.00 0.00 99 1014.1
20260505121144 8 24 3.2 3.2 0.00 0.00 0.00 99 1014.1
20260505120930 7 351 3.2 3.2 0.00 0.00 0.00 99 1014.1
20260505120145 7 34 1.6 3.2 0.00 0.00 0.00 99 1014.1
20260505115646 7 2 1.6 3.2 0.00 0.00 0.00 99 1014.1
20260505115145 7 32 1.6 3.2 0.00 0.00 0.00 99 1014.2
20260505114645 7 211 1.6 3.2 0.00 0.00 0.00 99 1014.1
20260505114146 7 12 1.6 3.2 0.00 0.00 0.00 99 1014.0
20260505113645 7 47 1.6 3.2 0.00 0.00 0.00 99 1013.8
20260505113143 7 33 1.6 3.2 0.00 0.00 0.00 99 1013.5
20260505112643 6 32 1.6 3.2 0.00 0.00 0.00 99 1013.4
20260505112142 6 45 1.6 3.2 0.00 0.00 0.00 99 1013.5
20260505111642 6 47 1.6 3.2 0.00 0.00 0.00 99 1013.4
20260505111142 6 219 1.6 3.2 0.00 0.00 0.00 99 1013.5
20260505110644 6 230 1.6 3.2 0.00 0.00 0.00 99 1013.5
20260505110143 6 50 1.6 3.2 0.00 0.00 0.00 99 1013.5
20260505102141 7 52 1.6 3.2 0.00 0.00 0.00 98 1013.4
20260505101641 7 40 1.6 3.2 0.00 0.00 0.00 99 1013.3
20260505101142 7 36 1.6 3.2 0.00 0.00 0.00 99 1013.4
20260505100643 7 229 1.6 3.2 0.00 0.00 0.00 99 1013.5
20260505100143 7 43 1.6 3.2 0.00 0.00 0.00 99 1013.5
20260505095645 7 71 1.6 3.2 0.00 0.00 0.00 98 1013.6
20260505095143 7 37 1.6 3.2 0.00 0.00 0.00 98 1013.6
20260505094643 7 35 1.6 3.2 0.00 0.00 0.00 98 1013.6
20260505094139 7 0 1.6 3.2 0.00 0.00 0.00 98 1013.5
20260505093714 7 24 1.6 3.2 0.00 0.00 0.00 98 1013.4
20260505093701 7 220 1.6 3.2 0.00 0.00 0.00 98 1013.4
20260505092638 7 43 1.6 3.2 0.00 0.00 0.00 98 1013.3
20260505092139 7 240 1.6 3.2 0.00 0.00 0.00 98 1013.3
20260505091640 7 219 1.6 3.2 0.00 0.00 0.00 98 1013.4
20260505091207 7 57 1.6 3.2 0.00 0.00 0.00 98 1013.5
20260505091157 7 37 1.6 3.2 0.00 0.00 0.00 98 1013.4
20260505090138 7 228 1.6 3.2 0.00 0.00 0.00 98 1013.6
20260505085636 7 42 1.6 3.2 0.00 0.00 0.00 98 1013.6
20260505085137 7 15 1.6 3.2 0.00 0.00 0.00 98 1013.6
20260505084637 7 33 1.6 3.2 0.00 0.00 0.00 98 1013.6
20260505084134 7 24 1.6 3.2 0.00 0.00 0.00 98 1013.8
20260505083917 7 27 1.6 3.2 0.00 0.00 0.00 98 1013.9
20260505083135 7 208 1.6 3.2 0.00 0.00 0.00 98 1013.9
20260505082633 7 38 1.6 3.2 0.00 0.00 0.00 98 1013.8
20260505082134 7 0 1.6 3.2 0.00 0.00 0.00 97 1013.8
20260505081630 7 225 1.6 3.2 0.00 0.00 0.00 97 1013.8
20260505081131 7 26 1.6 3.2 0.00 0.00 0.00 97 1013.8